Date,TemperatureHighF,TemperatureAvgF,TemperatureLowF,DewpointHighF,DewpointAvgF,DewpointLowF,HumidityHigh,HumidityAvg,HumidityLow,PressureMaxIn,PressureMinIn,WindSpeedMaxMPH,WindSpeedAvgMPH,GustSpeedMaxMPH,PrecipitationSumIn
2012-1-1,44,38,30,38,34,28,97,86,68,0.00,40.00,10,2,18,0.29
2012-1-2,40,33,28,39,25,-100,96,73,47,0.00,40.00,9,-4,22,0.01
2012-1-3,28,14,2,20,1,-8,71,55,40,0.00,40.00,17,8,32,0.00
2012-1-4,19,9,0,6,-4,-10,65,55,41,0.00,40.00,18,-2,28,0.00
2012-1-5,31,21,13,19,7,-100,76,60,46,0.00,40.00,11,-46,22,0.00
2012-1-6,27,22,12,21,17,7,86,81,75,0.00,40.00,4,-6,7,0.51
2012-1-7,38,29,23,29,25,20,90,84,65,0.00,40.00,3,1,7,0.00
2012-1-8,34,29,19,27,19,11,92,66,52,0.00,40.00,12,6,19,0.00
2012-1-9,30,22,15,15,12,8,76,65,45,0.00,40.00,5,2,13,0.00
2012-1-10,38,29,21,27,20,14,79,67,53,0.00,40.00,9,3,15,0.00
2012-1-11,31,26,18,21,13,5,75,58,32,0.00,40.00,6,2,11,0.00
2012-1-12,28,26,22,24,22,20,93,87,75,0.00,40.00,10,4,19,4.86
2012-1-13,32,27,22,31,23,-100,94,87,73,0.00,40.00,10,-5,19,0.32
2012-1-14,28,18,1,21,8,-12,77,66,53,0.00,40.00,16,7,24,0.00
2012-1-15,6,1,-3,-9,-11,-13,63,57,47,0.00,40.00,17,10,26,0.00
2012-1-16,24,12,-3,17,-1,-10,73,56,34,0.00,40.00,12,3,21,0.00
2012-1-17,34,30,24,32,26,17,95,86,70,0.00,40.00,3,1,6,0.83
2012-1-18,36,25,10,35,11,-4,96,56,34,0.00,40.00,17,8,34,0.00
2012-1-19,22,12,-1,19,4,-6,90,71,47,0.00,40.00,8,2,17,2.54
2012-1-20,22,17,10,19,6,-100,91,66,39,0.00,40.00,12,-9,24,1.34
2012-1-21,15,10,0,9,2,-6,84,70,49,0.00,40.00,6,2,9,0.56
2012-1-22,22,9,-4,10,1,-9,82,71,38,0.00,40.00,3,1,6,0.00
2012-1-23,32,25,15,31,21,-100,95,87,81,0.00,40.00,3,-13,6,0.58
2012-1-24,41,33,30,40,28,-100,98,89,74,0.00,40.00,6,-26,12,0.00
2012-1-25,34,30,26,28,17,-100,89,66,58,0.00,40.00,12,-44,20,0.00
2012-1-26,36,28,24,27,13,-100,93,61,34,0.00,40.00,13,-38,21,0.74
2012-1-27,34,30,29,33,23,-100,95,89,88,0.00,40.00,12,-53,29,1.05
2012-1-28,39,33,28,30,23,-100,89,70,55,0.00,40.00,15,-23,29,0.01
2012-1-29,36,29,22,27,10,-100,78,51,34,0.00,40.00,9,-32,21,0.00
2012-1-30,30,22,15,23,8,-100,89,63,39,0.00,40.00,16,-37,33,0.28
2012-1-31,26,21,15,22,11,-100,91,81,82,0.00,40.00,5,-75,7,1.15
2012-2-1,40,28,23,38,18,-100,93,82,70,0.00,40.00,6,-75,19,0.00
2012-2-2,36,29,23,31,14,-100,87,63,55,0.00,40.00,11,-66,17,0.00
2012-2-3,30,23,15,18,7,-100,72,58,36,0.00,40.00,13,-29,25,0.00
2012-2-4,29,23,15,23,8,-100,89,59,37,0.00,40.00,15,-31,21,0.00
2012-2-5,29,19,9,13,4,-100,78,58,33,0.00,40.00,8,-32,16,0.00
2012-2-6,43,28,15,24,17,-100,86,66,38,0.00,40.00,7,-5,14,0.00
2012-2-7,37,30,17,26,16,-100,80,59,46,0.00,40.00,12,-1,22,0.00
2012-2-8,32,22,10,15,4,-100,70,49,21,0.00,40.00,7,-12,12,0.00
2012-2-9,37,27,19,18,13,-100,75,57,32,0.00,40.00,9,-6,17,0.00
2012-2-10,43,30,17,23,17,11,84,61,27,0.00,40.00,7,1,12,0.00
2012-2-11,34,29,14,24,18,-100,73,64,49,0.00,40.00,15,-3,26,0.00
2012-2-12,13,9,5,4,-7,-100,65,51,39,0.00,40.00,17,-12,29,0.00
2012-2-13,34,18,2,16,7,-5,77,62,33,0.00,40.00,12,-5,25,0.00
2012-2-14,36,26,16,24,18,13,88,72,41,0.00,40.00,5,-6,9,0.00
2012-2-15,38,32,28,29,26,22,88,78,58,0.00,40.00,4,-6,6,0.01
2012-2-16,41,34,25,32,27,-100,94,78,52,0.00,40.00,4,-13,8,0.05
2012-2-17,43,35,26,38,27,-100,96,76,42,0.00,40.00,9,-18,17,0.01
2012-2-18,38,31,23,24,19,-100,86,64,36,0.00,40.00,12,-3,24,0.00
2012-2-19,34,28,20,20,14,-100,74,56,39,0.00,40.00,12,-2,18,0.00
2012-2-20,32,25,16,16,10,-100,77,55,30,0.00,40.00,12,-2,23,0.00
2012-2-21,37,27,16,28,16,-100,90,64,37,0.00,40.00,7,-5,12,1.38
2012-2-22,46,35,30,39,27,20,94,74,36,0.00,40.00,6,1,22,0.00
2012-2-23,41,34,29,36,26,19,93,74,40,0.00,40.00,14,-4,24,0.00
2012-2-24,35,31,26,31,25,20,94,80,56,0.00,40.00,6,2,14,3.41
2012-2-25,33,29,22,30,22,-100,95,77,59,0.00,40.00,18,-7,29,0.17
2012-2-26,29,22,15,11,2,-10,66,43,18,0.00,40.00,17,-7,28,0.00
2012-2-27,35,24,10,21,11,3,76,58,38,0.00,40.00,6,2,9,0.00
2012-2-28,37,30,19,25,16,9,79,56,39,0.00,40.00,15,-8,27,0.01
2012-2-29,29,25,20,24,16,-100,89,72,50,0.00,40.00,4,-13,10,0.51
2012-3-1,26,21,18,24,18,-100,93,88,81,0.00,40.00,9,-2,17,4.54
2012-3-2,27,21,17,23,11,-100,90,74,67,0.00,40.00,4,-68,9,0.00
2012-3-3,37,30,26,36,24,-100,95,89,61,0.00,40.00,6,-54,17,1.20
2012-3-4,40,30,22,24,14,-100,89,62,35,0.00,40.00,10,-54,17,0.00
2012-3-5,26,21,13,15,3,-100,80,51,40,0.00,40.00,14,-36,24,0.00
2012-3-6,31,19,8,9,-4,-100,70,44,18,0.00,40.00,11,-52,21,0.00
2012-3-7,53,31,15,28,10,-100,76,52,29,0.00,40.00,4,-62,9,0.00
2012-3-8,62,47,31,45,33,-100,89,65,42,0.00,40.00,6,-34,17,0.00
2012-3-9,54,33,27,45,17,-100,87,56,32,0.00,40.00,18,-15,29,0.23
2012-3-10,34,27,20,25,19,-100,92,74,40,0.00,40.00,6,-26,13,1.03
2012-3-11,52,35,20,27,19,-100,85,58,27,0.00,40.00,7,-20,13,0.00
2012-3-12,61,43,29,34,28,24,84,59,26,0.00,40.00,8,-5,12,0.00
2012-3-13,65,48,37,47,39,31,92,72,50,0.00,40.00,5,-6,14,0.00
2012-3-14,52,41,35,46,37,-100,96,88,67,0.00,40.00,7,-5,13,0.00
2012-3-15,40,35,31,35,32,29,94,87,72,0.00,40.00,4,-6,9,0.00
2012-3-16,38,34,32,36,31,-100,95,89,80,0.00,40.00,4,-6,7,0.01
2012-3-17,49,39,30,41,35,29,97,86,65,0.00,40.00,6,2,9,0.00
2012-3-18,75,50,30,47,38,29,96,70,26,0.00,40.00,7,-6,11,0.00
2012-3-19,75,55,41,49,43,39,94,69,34,0.00,40.00,9,-12,17,0.00
2012-3-20,77,55,37,51,43,-100,93,68,34,0.00,40.00,6,1,16,0.00
2012-3-21,79,61,45,53,45,34,95,62,25,0.00,40.00,7,-12,14,0.00
2012-3-22,80,62,46,55,46,-100,95,63,28,0.00,40.00,11,-18,18,0.00
2012-3-23,66,58,47,52,29,-100,81,39,10,0.00,40.00,14,-22,29,0.00
2012-3-24,56,48,43,38,20,-100,73,36,13,0.00,40.00,8,-26,15,0.00
2012-3-25,45,41,38,39,36,32,93,82,66,0.00,40.00,4,-21,8,0.10
2012-3-26,40,32,26,38,17,-4,94,56,24,0.00,40.00,22,10,42,0.01
2012-3-27,40,29,19,7,-4,-11,39,25,11,0.00,40.00,17,-6,29,0.00
2012-3-28,42,34,28,31,20,-100,80,58,32,0.00,40.00,6,-13,13,0.02
2012-3-29,40,36,32,35,27,-100,87,71,57,0.00,40.00,13,-1,22,0.00
2012-3-30,41,35,29,25,12,4,74,42,22,0.00,40.00,14,-2,26,0.04
2012-3-31,44,36,28,26,20,12,81,52,39,0.00,40.00,6,-13,11,0.00
2012-4-1,50,35,22,35,22,-100,91,66,23,0.00,40.00,7,-41,12,0.03
2012-4-2,47,38,29,33,20,0,93,55,16,0.00,40.00,15,-32,28,0.00
2012-4-3,51,38,26,17,8,3,59,31,14,0.00,40.00,17,-10,29,0.00
2012-4-4,54,43,29,30,19,9,73,42,20,0.00,40.00,16,5,26,0.00
2012-4-5,42,35,27,30,19,-100,82,54,38,0.00,40.00,15,-16,27,0.00
2012-4-6,47,34,24,23,15,-100,79,49,24,0.00,40.00,14,-3,27,0.00
2012-4-7,48,38,26,20,17,12,64,43,27,0.00,40.00,13,5,29,0.00
2012-4-8,45,40,35,29,23,18,64,50,37,0.00,40.00,12,-10,24,0.00
2012-4-9,47,40,30,33,28,-100,80,63,47,0.00,40.00,11,-12,26,0.00
2012-4-10,51,42,33,32,28,-100,82,60,38,0.00,40.00,9,-13,19,0.00
2012-4-11,53,41,28,35,28,-100,88,63,32,0.00,40.00,8,-6,14,0.00
2012-4-12,52,43,32,37,32,23,92,67,33,0.00,40.00,11,3,19,0.00
2012-4-13,59,43,27,38,23,11,93,54,14,0.00,40.00,14,-11,24,0.00
2012-4-14,66,49,31,28,21,-100,71,39,13,0.00,40.00,6,-6,15,0.00
2012-4-15,74,58,40,51,38,-100,74,49,34,0.00,40.00,11,-12,21,0.00
2012-4-16,87,70,54,58,50,43,89,56,21,0.00,40.00,7,-6,15,0.00
2012-4-17,74,64,51,53,36,19,84,41,13,0.00,40.00,14,-1,26,0.00
2012-4-18,58,48,38,31,25,-100,72,43,27,0.00,40.00,11,-3,17,0.00
2012-4-19,68,50,31,39,32,18,91,57,14,0.00,40.00,6,-5,17,0.00
2012-4-20,77,58,39,46,38,-100,91,53,19,0.00,40.00,8,-5,19,0.00
2012-4-21,74,61,50,51,46,-100,79,60,39,0.00,40.00,12,-4,18,0.00
2012-4-22,53,44,39,47,40,-100,95,91,77,0.00,40.00,11,-11,26,1.05
2012-4-23,54,44,36,53,42,34,95,92,89,0.00,40.00,13,-3,29,0.94
2012-4-24,53,44,36,44,33,-100,90,67,34,0.00,40.00,9,-4,20,0.04
2012-4-25,54,43,31,40,30,-100,93,65,32,0.00,40.00,11,-12,19,0.00
2012-4-26,60,46,31,43,32,24,92,65,25,0.00,40.00,6,-5,13,0.33
2012-4-27,46,41,32,44,32,18,95,70,50,0.00,40.00,17,1,33,0.02
2012-4-28,49,38,29,21,14,3,62,42,14,0.00,40.00,16,1,27,0.00
2012-4-29,50,39,25,20,10,-100,71,37,13,0.00,40.00,16,-8,32,0.00
2012-4-30,61,47,32,31,17,6,52,31,14,0.00,40.00,13,-17,21,0.00
2012-5-1,49,42,39,41,38,29,93,86,45,0.00,40.00,6,-5,12,0.73
2012-5-2,48,44,40,43,40,-100,93,87,78,0.00,40.00,5,-27,9,0.00
2012-5-3,53,46,42,47,43,-100,95,89,79,0.00,40.00,4,-6,9,0.21
2012-5-4,52,48,47,51,44,-100,98,92,88,0.00,40.00,4,-21,9,0.08
2012-5-5,67,55,48,53,45,-100,97,73,43,0.00,40.00,7,-13,14,0.00
2012-5-6,67,54,44,48,39,-100,93,64,28,0.00,40.00,6,-5,14,0.00
2012-5-7,69,54,37,43,37,30,93,58,24,0.00,40.00,7,-12,11,0.00
2012-5-8,50,47,45,47,43,-100,96,88,62,0.00,40.00,6,-6,14,1.25
2012-5-9,62,53,46,57,50,-100,98,94,82,0.00,40.00,4,-13,7,0.00
2012-5-10,58,51,42,56,47,-100,98,90,67,0.00,40.00,9,-25,18,0.60
2012-5-11,60,48,38,41,34,-100,96,64,24,0.00,40.00,12,-2,22,0.00
2012-5-12,75,55,33,44,31,-100,92,51,18,0.00,40.00,12,-4,25,0.00
2012-5-13,80,61,44,54,43,-100,89,57,27,0.00,40.00,7,-19,17,0.00
2012-5-14,64,58,53,57,53,48,96,84,65,0.00,40.00,4,-27,9,0.92
2012-5-15,68,59,56,59,56,54,98,90,62,0.00,40.00,6,-19,13,0.27
2012-5-16,70,60,56,62,57,-100,98,89,71,0.00,40.00,7,-14,15,2.11
2012-5-17,62,53,41,56,39,25,97,64,25,0.00,40.00,13,4,23,0.00
2012-5-18,71,54,35,46,36,-100,93,59,26,0.00,40.00,6,-20,14,0.00
2012-5-19,79,62,41,54,43,-100,91,56,25,0.00,40.00,6,-6,10,0.00
2012-5-20,83,66,49,56,48,-100,93,57,27,0.00,40.00,6,-13,12,0.00
2012-5-21,76,62,47,59,48,-100,93,65,31,0.00,40.00,10,-11,17,0.00
2012-5-22,65,61,57,63,58,-100,96,93,85,0.00,40.00,6,-21,11,0.57
2012-5-23,75,65,56,65,60,56,98,86,59,0.00,40.00,7,-27,11,0.00
2012-5-24,73,63,57,64,57,-100,97,83,59,0.00,40.00,7,-12,13,0.00
2012-5-25,68,61,57,63,58,-100,97,92,83,0.00,40.00,4,-26,9,0.00
2012-5-26,81,70,58,68,55,41,98,66,24,0.00,40.00,11,-4,22,0.00
2012-5-27,80,66,50,56,49,-100,91,60,34,0.00,40.00,7,-12,12,0.00
2012-5-28,78,65,56,57,49,-100,77,58,43,0.00,40.00,6,-19,12,0.00
2012-5-29,62,58,55,59,56,51,98,92,74,0.00,40.00,7,2,11,0.35
2012-5-30,76,64,58,67,60,58,98,88,56,0.00,40.00,7,1,12,0.00
2012-5-31,74,64,54,59,48,-100,96,63,31,0.00,40.00,11,-24,18,0.00
2012-6-1,70,58,46,48,41,31,92,56,29,0.00,40.00,6,-5,10,0.00
2012-6-2,55,52,50,54,46,-100,96,85,60,0.00,40.00,10,-24,21,1.97
2012-6-3,57,52,50,52,47,-100,97,86,71,0.00,40.00,6,-25,16,0.00
2012-6-4,52,48,47,47,45,-100,94,89,80,0.00,40.00,7,-12,14,0.13
2012-6-5,59,50,47,52,45,-100,96,85,63,0.00,40.00,4,-21,17,0.04
2012-6-6,66,55,47,53,48,42,97,81,43,0.00,40.00,6,-41,10,0.00
2012-6-7,67,56,48,58,50,-100,97,83,47,0.00,40.00,6,-20,10,0.00
2012-6-8,76,60,51,62,53,-100,98,79,41,0.00,40.00,8,-12,17,2.47
2012-6-9,73,59,46,56,45,-100,97,68,31,0.00,40.00,11,-32,24,0.00
2012-6-10,80,63,45,56,44,-100,94,59,24,0.00,40.00,7,-12,11,0.00
2012-6-11,73,62,52,57,51,-100,91,68,44,0.00,40.00,7,-6,11,0.00
2012-6-12,76,63,52,64,55,-100,96,78,51,0.00,40.00,6,-6,12,0.22
2012-6-13,72,63,59,67,59,-100,98,89,56,0.00,40.00,7,-26,14,1.33
2012-6-14,74,63,53,58,52,-100,92,69,43,0.00,40.00,5,-5,11,0.00
2012-6-15,75,62,46,54,47,37,95,64,31,0.00,40.00,7,2,13,0.00
2012-6-16,72,60,49,56,52,48,95,75,48,0.00,40.00,7,-5,14,0.00
2012-6-17,71,58,45,54,48,-100,95,73,52,0.00,40.00,6,2,12,0.00
2012-6-18,63,55,49,52,49,46,93,81,62,0.00,40.00,4,2,9,0.00
2012-6-19,76,63,51,64,57,49,96,83,60,0.00,40.00,7,-6,11,0.00
2012-6-20,91,75,60,72,64,-100,97,73,37,0.00,40.00,11,-33,20,0.00
2012-6-21,90,78,66,72,68,63,95,73,40,0.00,40.00,10,-4,19,0.00
2012-6-22,89,76,64,69,64,56,95,68,43,0.00,40.00,7,2,15,0.00
2012-6-23,83,68,59,62,56,-100,93,68,33,0.00,40.00,13,-11,24,0.00
2012-6-24,80,66,52,57,50,-100,95,63,28,0.00,40.00,11,-5,21,0.00
2012-6-25,66,61,56,62,58,-100,96,90,71,0.00,40.00,6,-6,10,0.77
2012-6-26,66,58,51,56,51,-100,97,82,67,0.00,40.00,13,-16,26,0.00
2012-6-27,66,60,56,56,54,52,90,78,65,0.00,40.00,13,-9,21,0.00
2012-6-28,76,65,53,60,54,-100,95,72,42,0.00,40.00,11,-4,21,0.00
2012-6-29,87,69,55,72,58,50,95,72,35,0.00,40.00,7,2,18,0.02
2012-6-30,86,74,57,62,56,50,86,56,33,0.00,40.00,11,3,21,0.00
2012-7-1,85,72,60,64,59,50,90,65,30,0.00,40.00,12,2,27,0.00
2012-7-2,79,69,60,61,57,50,91,67,39,0.00,40.00,9,-11,18,0.03
2012-7-3,79,66,54,63,55,45,97,71,30,0.00,40.00,10,-5,21,0.00
2012-7-4,83,68,58,71,63,54,97,85,55,0.00,40.00,12,2,31,1.48
2012-7-5,78,68,60,64,60,-100,98,78,56,0.00,40.00,10,-10,18,0.00
2012-7-6,84,70,56,67,61,55,96,75,42,0.00,40.00,6,2,12,0.00
2012-7-7,79,70,64,70,64,-100,91,82,57,0.00,40.00,6,-13,14,0.00
2012-7-8,79,68,58,62,53,-100,94,61,35,0.00,40.00,12,-2,21,0.00
2012-7-9,76,64,50,54,46,38,91,56,28,0.00,40.00,11,4,19,0.00
2012-7-10,79,63,45,56,47,40,88,59,26,0.00,40.00,7,-5,16,0.00
2012-7-11,83,68,51,59,52,42,93,61,24,0.00,40.00,8,1,13,0.00
2012-7-12,87,70,55,63,56,45,93,65,23,0.00,40.00,5,1,10,0.00
2012-7-13,89,73,58,67,60,54,93,67,30,0.00,40.00,6,1,13,0.00
2012-7-14,87,73,62,70,65,61,95,77,52,0.00,40.00,6,2,12,0.00
2012-7-15,89,74,61,69,64,56,96,73,33,0.00,40.00,5,1,10,0.01
2012-7-16,85,74,64,70,67,64,98,78,50,0.00,40.00,9,2,19,0.00
2012-7-17,93,74,64,73,67,62,98,81,39,0.00,40.00,20,2,40,0.00
2012-7-18,81,72,62,72,65,54,98,80,46,0.00,40.00,10,2,14,0.00
2012-7-19,76,64,51,55,50,44,93,63,35,0.00,40.00,10,3,20,0.00
2012-7-20,76,64,52,57,51,45,87,65,39,0.00,40.00,4,-6,7,0.00
2012-7-21,80,66,51,58,51,45,95,62,30,0.00,40.00,5,1,9,0.00
2012-7-22,84,70,57,62,57,49,87,63,39,0.00,40.00,6,1,12,0.00
2012-7-23,86,73,63,69,63,-100,95,73,49,0.00,40.00,6,-6,12,0.04
2012-7-24,82,71,63,72,63,-100,98,78,46,0.00,40.00,16,-3,26,0.04
2012-7-25,76,65,53,54,49,-100,89,60,34,0.00,40.00,13,-2,24,0.00
2012-7-26,69,64,59,63,58,53,97,82,65,0.00,40.00,2,1,9,0.64
2012-7-27,73,66,62,69,65,61,98,94,79,0.00,40.00,4,1,12,0.27
2012-7-28,78,68,62,70,65,61,98,89,64,0.00,40.00,4,1,7,0.04
2012-7-29,72,65,61,65,63,59,98,93,67,0.00,40.00,5,1,11,0.17
2012-7-30,81,68,58,68,62,57,98,84,52,0.00,40.00,4,1,7,0.00
2012-7-31,80,69,59,64,59,54,97,74,42,0.00,40.00,7,-5,13,0.00
2012-8-1,80,71,64,68,64,61,96,81,57,0.00,40.00,4,1,9,0.03
2012-8-2,85,73,64,71,66,61,98,80,50,0.00,40.00,4,1,10,0.00
2012-8-3,86,73,61,71,65,60,94,76,46,0.00,40.00,7,1,11,0.00
2012-8-4,88,74,63,71,66,62,96,78,48,0.00,40.00,5,1,9,0.00
2012-8-5,88,72,61,72,67,60,96,87,52,0.00,40.00,6,2,12,0.14
2012-8-6,76,68,56,71,61,53,98,79,47,0.00,40.00,10,-4,16,0.00
2012-8-7,80,64,52,63,53,-100,96,72,44,0.00,40.00,4,-27,9,0.00
2012-8-8,85,69,54,64,58,49,96,72,30,0.00,40.00,5,1,10,0.00
2012-8-9,84,71,60,70,65,59,96,80,52,0.00,40.00,4,1,13,0.00
2012-8-10,79,69,66,73,65,-100,98,92,67,0.00,40.00,7,-27,14,1.90
2012-8-11,79,70,64,72,67,64,98,90,67,0.00,40.00,4,-13,9,1.17
2012-8-12,80,70,66,71,66,-100,98,90,60,0.00,40.00,7,-6,12,0.01
2012-8-13,80,69,61,69,64,-100,98,86,56,0.00,40.00,7,-27,12,0.00
2012-8-14,80,67,58,69,60,-100,98,82,55,0.00,40.00,4,-34,8,0.00
2012-8-15,78,68,63,69,63,-100,98,89,60,0.00,40.00,6,-22,9,0.04
2012-8-16,77,68,59,66,63,58,97,84,56,0.00,40.00,12,-5,18,0.00
2012-8-17,82,66,55,69,59,-100,98,84,53,0.00,40.00,6,-27,29,4.99
2012-8-18,75,63,53,64,56,-100,98,81,43,0.00,40.00,6,-27,12,0.04
2012-8-19,72,60,47,59,52,46,97,76,44,0.00,40.00,5,-34,9,0.00
2012-8-20,76,63,49,60,53,-100,97,73,39,0.00,40.00,5,-14,7,0.00
2012-8-21,77,66,55,60,56,47,96,72,37,0.00,40.00,9,-12,15,0.00
2012-8-22,78,62,49,59,51,-100,95,71,27,0.00,40.00,6,-6,13,0.00
2012-8-23,81,64,53,65,53,-100,97,73,36,0.00,40.00,6,-41,14,0.00
2012-8-24,82,69,56,67,60,55,96,76,45,0.00,40.00,4,-6,8,0.00
2012-8-25,79,68,59,66,62,56,98,81,56,0.00,40.00,6,1,9,0.00
2012-8-26,81,68,55,66,60,54,96,78,51,0.00,40.00,4,-6,9,0.00
2012-8-27,83,69,55,68,60,-100,97,76,47,0.00,40.00,4,-6,9,0.00
2012-8-28,79,70,61,70,63,50,98,79,56,0.00,40.00,11,-4,20,0.04
2012-8-29,70,58,47,54,48,42,95,71,38,0.00,40.00,10,-13,17,0.00
2012-8-30,77,61,47,61,50,-100,95,71,40,0.00,40.00,5,-36,11,0.00
2012-8-31,81,68,54,66,58,52,93,71,41,0.00,40.00,6,1,14,0.00
2012-9-1,78,67,55,64,60,53,98,79,49,0.00,40.00,5,-6,11,0.00
2012-9-2,71,61,55,60,55,53,96,82,57,0.00,40.00,4,1,10,0.07
2012-9-3,73,63,56,59,56,54,98,79,51,0.00,40.00,6,1,9,0.00
2012-9-4,63,60,55,63,59,54,98,97,95,0.00,40.00,4,1,6,1.62
2012-9-5,75,67,63,69,63,-100,98,90,69,0.00,40.00,11,-12,19,0.69
2012-9-6,75,67,63,67,63,-100,98,89,68,0.00,40.00,3,-6,7,0.00
2012-9-7,80,66,59,66,60,-100,98,85,37,0.00,40.00,4,-7,9,0.00
2012-9-8,79,68,59,70,64,58,98,88,59,0.00,40.00,11,3,22,2.23
2012-9-9,68,58,51,58,54,47,98,86,50,0.00,40.00,8,2,14,0.01
2012-9-10,62,54,45,51,44,-100,93,72,52,0.00,40.00,15,-23,32,0.00
2012-9-11,67,54,42,52,43,-100,94,70,33,0.00,40.00,9,-12,14,0.00
2012-9-12,73,57,44,56,49,42,96,77,36,0.00,40.00,4,-6,7,0.00
2012-9-13,78,61,47,63,54,46,97,79,44,0.00,40.00,4,-6,9,0.00
2012-9-14,79,64,51,63,57,51,97,79,45,0.00,40.00,4,1,10,0.00
2012-9-15,65,57,45,58,48,-100,98,76,43,0.00,40.00,14,-4,24,0.01
2012-9-16,61,49,39,44,39,32,96,71,34,0.00,40.00,12,3,22,0.00
2012-9-17,69,53,35,56,45,34,95,77,43,0.00,40.00,4,-6,7,0.00
2012-9-18,67,58,48,66,57,47,98,95,81,0.00,40.00,8,3,19,1.00
2012-9-19,66,57,43,65,48,34,98,74,40,0.00,40.00,9,4,16,0.15
2012-9-20,60,49,37,47,40,35,95,74,39,0.00,40.00,4,2,10,0.00
2012-9-21,63,52,41,51,46,40,96,80,51,0.00,40.00,6,2,10,0.00
2012-9-22,68,56,45,59,52,44,98,88,65,0.00,40.00,6,-20,12,0.00
2012-9-23,62,55,42,58,47,-100,98,80,39,0.00,40.00,10,3,17,0.59
2012-9-24,58,46,36,47,40,35,96,81,45,0.00,40.00,4,1,11,0.00
2012-9-25,66,49,34,48,40,33,96,75,33,0.00,40.00,6,1,10,0.00
2012-9-26,65,57,49,60,54,45,98,92,79,0.00,40.00,2,1,6,0.00
2012-9-27,58,52,40,56,44,36,98,76,46,0.00,40.00,11,4,23,0.00
2012-9-28,49,45,37,49,44,36,97,96,94,0.00,40.00,4,2,9,1.13
2012-9-29,56,51,48,52,49,46,97,93,81,0.00,40.00,6,2,12,0.01
2012-9-30,56,52,47,55,51,46,98,97,93,0.00,40.00,4,1,7,0.08
2012-10-1,60,53,46,54,50,45,98,92,74,0.00,40.00,6,-5,12,0.02
2012-10-2,65,56,47,59,53,47,98,89,68,0.00,40.00,5,1,6,0.00
2012-10-3,60,58,57,59,58,56,98,97,95,0.00,40.00,4,1,9,0.18
2012-10-4,60,58,58,59,58,57,98,98,98,0.00,40.00,4,1,7,0.04
2012-10-5,70,60,55,62,58,54,98,91,61,0.00,40.00,4,-13,7,0.00
2012-10-6,70,57,43,61,54,40,98,88,63,0.00,40.00,11,2,22,0.00
2012-10-7,51,45,36,44,39,35,96,79,57,0.00,40.00,9,-5,14,0.30
2012-10-8,52,44,36,44,40,35,98,87,53,0.00,40.00,8,2,16,0.04
2012-10-9,54,44,33,45,40,32,97,86,65,0.00,40.00,5,2,11,0.00
2012-10-10,51,48,44,51,46,41,98,93,84,0.00,40.00,10,-5,17,0.14
2012-10-11,52,44,36,42,34,25,97,72,36,0.00,40.00,12,4,24,0.00
2012-10-12,47,40,28,38,30,19,87,68,36,0.00,40.00,14,5,25,0.01
2012-10-13,46,35,23,32,24,17,92,68,31,0.00,40.00,10,2,21,0.00
2012-10-14,49,42,36,48,41,32,98,95,76,0.00,40.00,4,1,6,0.34
2012-10-15,65,53,41,62,52,40,98,96,82,0.00,40.00,4,-6,7,0.25
2012-10-16,57,46,34,57,39,31,98,79,54,0.00,40.00,21,6,33,0.00
2012-10-17,56,42,30,42,34,27,95,75,33,0.00,40.00,8,2,12,0.00
2012-10-18,61,48,36,45,38,32,95,74,34,0.00,40.00,7,2,13,0.00
2012-10-19,59,54,44,58,52,43,98,95,90,0.00,40.00,7,3,16,1.33
2012-10-20,68,60,46,64,57,45,98,90,49,0.00,40.00,4,1,10,0.00
2012-10-21,58,47,37,46,40,36,98,79,45,0.00,40.00,11,3,22,0.00
2012-10-22,58,49,37,44,38,35,92,69,43,0.00,40.00,13,-17,21,0.00
2012-10-23,55,45,38,41,38,33,95,77,48,0.00,40.00,7,3,14,0.00
2012-10-24,58,42,29,34,28,5,92,63,11,0.00,40.00,6,2,9,0.00
2012-10-25,59,48,35,44,37,29,89,68,39,0.00,40.00,6,1,10,0.00
2012-10-26,60,48,39,51,45,38,97,89,69,0.00,40.00,4,1,7,0.00
2012-10-27,63,52,41,54,48,40,98,87,67,0.00,40.00,5,1,9,0.00
2012-10-28,54,50,47,49,42,30,91,73,42,0.00,40.00,7,3,16,0.00
2012-10-29,58,52,47,56,50,45,96,94,91,0.00,40.00,14,7,32,0.83
2012-10-30,64,59,52,58,56,51,98,91,67,0.00,40.00,11,-23,26,0.18
2012-10-31,56,51,46,54,47,41,98,88,70,0.00,40.00,7,-19,12,0.01
2012-11-1,49,44,41,41,38,34,95,80,60,0.00,40.00,6,-34,9,0.00
2012-11-2,47,41,36,40,36,32,96,80,57,0.00,40.00,9,-40,16,0.00
2012-11-3,45,41,39,33,31,29,77,68,54,0.00,40.00,14,-20,23,0.00
2012-11-4,42,38,33,31,28,23,77,68,59,0.00,40.00,16,3,26,0.00
2012-11-5,36,32,24,24,18,11,74,57,40,0.00,40.00,11,-30,19,0.00
2012-11-6,35,26,19,20,14,7,88,63,30,0.00,40.00,9,-19,14,0.00
2012-11-7,36,31,24,19,12,-1,78,47,20,0.00,40.00,6,-26,14,0.00
2012-11-8,36,33,30,33,29,16,94,84,46,0.00,40.00,12,-1,22,5.88
2012-11-9,45,38,33,30,25,14,83,61,28,0.00,40.00,19,-12,34,0.00
2012-11-10,46,38,29,31,24,10,79,58,23,0.00,40.00,12,-38,21,0.00
2012-11-11,52,40,33,41,33,24,95,75,60,0.00,40.00,6,-13,11,0.00
2012-11-12,64,47,32,53,41,31,97,80,39,0.00,40.00,6,-19,14,0.00
2012-11-13,59,43,27,56,39,25,94,87,66,0.00,40.00,16,-17,24,0.14
2012-11-14,41,31,24,26,21,-100,93,70,33,0.00,40.00,6,-12,10,0.00
2012-11-15,40,30,22,27,22,20,92,75,44,0.00,40.00,6,-40,9,0.00
2012-11-16,39,30,24,28,24,22,93,79,51,0.00,40.00,6,2,7,0.00
2012-11-17,43,31,24,30,22,14,94,72,31,0.00,40.00,6,-26,10,0.00
2012-11-18,42,30,21,27,22,18,88,74,51,0.00,40.00,4,-13,7,0.00
2012-11-19,42,28,20,28,22,18,93,78,44,0.00,40.00,3,-6,6,0.00
2012-11-20,45,30,20,27,21,17,92,71,32,0.00,40.00,5,-6,9,0.00
2012-11-21,45,34,27,31,26,23,94,73,49,0.00,40.00,4,-6,9,0.00
2012-11-22,48,33,23,35,28,22,95,83,49,0.00,40.00,3,-20,6,0.00
2012-11-23,52,38,25,38,31,24,95,79,47,0.00,40.00,4,1,7,0.00
2012-11-24,41,36,27,39,23,13,96,61,36,0.00,40.00,13,-22,25,0.00
2012-11-25,32,27,23,18,11,-1,73,52,23,0.00,40.00,14,-14,26,0.00
2012-11-26,38,27,18,24,19,15,88,72,46,0.00,40.00,11,-12,21,0.00
2012-11-27,34,26,20,24,20,17,93,80,61,0.00,40.00,3,-20,6,0.00
2012-11-28,34,26,17,23,18,15,93,75,49,0.00,40.00,6,-33,9,0.00
2012-11-29,36,29,19,26,19,14,91,68,43,0.00,40.00,10,-33,19,0.43
2012-11-30,27,21,16,20,3,-11,74,47,20,0.00,40.00,12,-10,18,0.08
2012-12-1,25,22,20,24,16,3,94,76,46,0.00,40.00,4,1,7,0.73
2012-12-2,36,30,25,35,30,24,98,96,94,0.00,40.00,4,-45,6,0.27
2012-12-3,48,38,27,46,34,26,98,89,63,0.00,40.00,13,-18,19,0.00
2012-12-4,38,33,25,37,32,24,98,97,96,0.00,40.00,4,-20,6,0.00
2012-12-5,47,39,27,46,32,13,98,77,50,0.00,40.00,18,-16,30,0.08
2012-12-6,32,26,20,19,13,-100,86,62,45,0.00,40.00,17,-33,28,0.00
2012-12-7,34,27,19,30,23,16,96,85,64,0.00,40.00,3,-20,7,0.73
2012-12-8,34,32,29,33,31,28,97,97,96,0.00,40.00,2,-50,6,0.11
2012-12-9,39,33,28,33,28,23,98,85,52,0.00,40.00,9,-12,17,0.00
2012-12-10,38,34,31,38,33,27,98,96,74,0.00,40.00,7,-27,17,0.49
2012-12-11,39,34,27,38,29,19,98,83,66,0.00,40.00,9,-11,17,0.00
2012-12-12,35,27,20,23,19,17,92,74,48,0.00,40.00,8,-18,17,0.00
2012-12-13,36,25,18,26,20,17,93,83,54,0.00,40.00,3,-20,7,0.00
2012-12-14,40,29,18,27,22,16,93,77,40,0.00,40.00,11,-41,18,0.00
2012-12-15,36,28,19,24,11,-4,66,50,19,0.00,40.00,11,-24,19,0.00
2012-12-16,22,20,19,19,9,-4,90,64,32,0.00,40.00,6,-19,15,1.11
2012-12-17,31,26,21,29,24,18,93,91,88,0.00,40.00,6,-41,16,1.80
2012-12-18,37,34,30,36,33,29,98,95,93,0.00,40.00,7,-4,19,0.71
2012-12-19,38,35,33,35,29,26,98,80,67,0.00,40.00,16,8,30,0.01
2012-12-20,36,32,27,28,26,25,92,78,64,0.00,40.00,9,-5,18,0.00
2012-12-21,49,37,31,48,35,27,96,93,85,0.00,40.00,18,-24,34,5.89
2012-12-22,34,29,21,31,21,9,92,73,52,0.00,40.00,17,-15,29,0.04
2012-12-23,32,26,19,22,14,9,79,63,42,0.00,40.00,12,-24,21,0.00
2012-12-24,30,26,21,24,16,9,79,65,42,0.00,40.00,9,-11,21,0.01
2012-12-25,28,23,19,24,17,9,89,77,61,0.00,40.00,12,-17,19,1.61
2012-12-26,31,22,10,18,11,7,87,65,41,0.00,40.00,9,2,16,1.26
2012-12-27,30,26,22,27,24,19,95,90,80,0.00,40.00,11,-30,26,3.87
2012-12-28,27,24,20,22,18,16,91,76,66,0.00,40.00,17,-36,35,0.00
2012-12-29,25,21,15,23,19,13,93,89,75,0.00,40.00,4,-26,12,4.34
2012-12-30,24,18,13,23,10,3,94,71,56,0.00,40.00,17,-41,34,0.07
2012-12-31,29,23,14,22,15,3,80,70,58,0.00,40.00,19,-38,32,0.00
2013-1-1,29,21,8,23,10,-3,88,61,45,0.00,40.00,14,-7,27,0.00